www.pogodaiklimat.ru

Погода и климат >> Архив погоды >> Украина >> Губиниха


ПОГОДА в Губинихе

  • Прогноз погоды в Губинихе
  • Монитор погоды в Губинихе

АРХИВ ПОГОДЫ в Губинихе

Время (UTC), дата Ветер
(напр.,м/с)
 
Видим.   Явления Облачность Т
(С)
Тd
(С)
f
(%)
Тe
(С)
Тes
(С)
Комфортность P
(гПа)
Po
(гПа)
Тmin
(С)
Tmax
(С)
R
(мм)
R24
(мм)
S
(см)
15 18.06 СЗ 2 20 км ясно +30.5 +15.4 40 +33 +37 душно 1013.0 998.7
18 18.06 СЗ 1 25 км ясно +25.2 +17.6 63 +29 +29 душно 1013.0 998.5 +31.1
21 18.06 СЗ 1 20 км ясно +21.8 +17.8 78 +26 +26 душно 1014.0 999.3
00 19.06 СЗ 1 14 км ясно +20.4 +18.0 86 +25 +25 комфорт 1014.0 999.2
03 19.06 С 2 20 км ясно +20.4 +17.2 82 +24 +25 комфорт 1014.0 999.2
06 19.06 С 3 20 км ясно +26.0 +16.0 54 +29 +37 душно 1014.0 999.5 +19.5
09 19.06 СВ 4 20 км 3/3 1000 м
[Cu med, cong]
+28.2 +12.5 38 +30 +38 жарко 1014.0 999.6
12 19.06 СВ 4 20 км 3/3 1000 м
[Cu med, cong]
+30.0 +11.1 31 +30 +37 жарко 1012.8 998.4
15 19.06 С 3 20 км 3/3 1000 м
[Cu hum]
+30.6 +11.0 30 +31 +33 жарко 1012.0 997.7
18 19.06 СВ 3 20 км ясно +26.6 +13.7 45 +29 +29 жарко 1012.0 997.5 +30.6
21 19.06 СВ 2 25 км ясно +23.3 +16.3 65 +28 +28 душно 1013.0 998.4
00 20.06 СВ 2 20 км ясно +21.4 +17.0 76 +25 +25 комфорт 1014.0 999.3
03 20.06 СВ 1 20 км ясно +20.2 +13.4 65 +23 +24 комфорт 1015.0 1000.2
06 20.06 СВ 2 20 км ясно +26.3 +14.7 49 +29 +38 жарко 1014.0 999.5 +19.8
09 20.06 В 5 20 км 4/4 600 м
[Cu hum]
+30.8 +10.2 28 +31 +37 жарко 1014.0 999.7
12 20.06 СВ 5 20 км 3/3 600 м
[Cu hum]
+32.0 +8.9 24 +31 +36 жарко 1013.0 998.7
15 20.06 СВ 4 20 км 3/3 600 м
[Cu hum]
+31.1 +8.7 25 +30 +32 жарко 1013.0 998.7
18 20.06 СВ 2 25 км 3/0
[Ci fib]
+25.4 +8.4 34 +26 +26 жарко 1013.0 998.4 +32.7
21 20.06 СВ 2 23 км ясно +23.0 +10.1 44 +25 +25 комфорт 1014.0 999.3
00 21.06 СВ 2 23 км ясно +22.0 +9.5 45 +24 +24 комфорт 1015.0 1000.2
03 21.06 СВ 2 20 км ясно +21.2 +11.2 53 +23 +24 комфорт 1016.0 1001.2
06 21.06 СВ 2 20 км ясно +26.8 +13.5 44 +29 +38 жарко 1016.0 1001.5 +21.0
09 21.06 В 4 20 км 3/3 600 м
[Cu hum]
+31.8 +10.5 27 +32 +40 жарко 1015.0 1000.7
12 21.06 СВ 7 20 км 3/3 600 м
[Cu hum]
+33.6 +9.6 23 +33 +35 жарко 1015.0 1000.8
15 21.06 СВ 6 20 км ясно +32.6 +9.4 24 +32 +33 жарко 1014.0 999.8
18 21.06 СВ 2 27 км ясно +27.0 +11.5 38 +28 +28 жарко 1014.0 999.5 +35.6
21 21.06 СВ 2 25 км ясно +24.8 +11.0 42 +26 +26 жарко 1015.0 1000.4
00 22.06 СВ 1 23 км ясно +21.9 +11.3 51 +24 +24 комфорт 1016.0 1001.2
03 22.06 СВ 1 20 км ясно +23.0 +11.1 47 +25 +26 комфорт 1016.0 1001.3
06 22.06 В 3 20 км ясно +29.9 +12.3 34 +31 +39 жарко 1016.0 1001.6 +21.4
09 22.06 СВ 4 20 км 6/6 600 м
[Cu hum]
+33.6 +8.9 22 +32 +37 жарко 1016.0 1001.8
12 22.06 СВ 3 20 км 8/5 600 м
[Cu hum Ac lent]
+34.0 +9.9 23 +33 +33 жарко 1015.0 1000.8
15 22.06 СВ 5 20 км 9/4 600 м
[Cu hum Ac lent]
+34.2 +10.1 23 +33 +33 жарко 1015.0 1000.8
18 22.06 СВ 3 28 км 8/4 600 м
[Cu hum Ac lent]
+29.2 +12.1 35 +30 +30 жарко 1015.0 1000.6 +35.3
21 22.06 СВ 2 27 км 3/0
[Ac trans]
+26.8 +12.1 40 +28 +28 жарко 1015.0 1000.5
00 23.06 С 1 25 км 8/0
[Ac trans]
+24.2 +11.2 44 +26 +26 жарко 1016.0 1001.3
03 23.06 СВ 1 20 км 8/0
[Ac trans]
+22.8 +12.4 52 +26 +26 жарко 1016.0 1001.3
06 23.06 С 1 20 км 8/0
[Ac trans]
+25.2 +13.7 49 +27 +27 жарко 1015.0 1000.4 +22.6
09 23.06 СВ 2 20 км 8/0
[Ac trans]
+29.8 +13.9 38 +32 +32 душно 1015.0 1000.6
12 23.06 СЗ 2 20 км 8/0
[Ac trans]
+30.8 +14.0 36 +32 +32 жарко 1015.0 1000.7
15 23.06 С 2 20 км 8/0
[Ac trans]
+28.5 +15.7 46 +32 +32 душно 1014.0 999.6
18 23.06 СЗ 3 22 км 9/5 600 м
[Cb calv Ac trans]
+24.6 +13.8 51 +27 +27 жарко 1014.0 999.4 +30.8
21 23.06 С 4 20 км 10/10 800 м
[Cb calv]
+24.4 +13.3 50 +27 +27 жарко 1014.0 999.4
00 24.06 З 2 18 км 10/10 800 м
[Cb calv]
+23.2 +14.2 57 +27 +27 душно 1015.0 1000.3
03 24.06 ЮЗ 2 21 км 9/0
[Ac cuf]
+21.2 +15.9 72 +25 +25 комфорт 1014.0 999.2
06 24.06 ЮЗ 2 20 км 9/0
[Ac trans]
+22.8 +16.3 67 +27 +27 душно 1015.0 1000.3 +21.0
09 24.06 СЗ 2 15 км слаб. ливневой дождь 10/10 750 м
[Cb cap]
+24.2 +17.9 68 +28 +28 душно 1016.0 1001.4
12 24.06 С 3 22 км {ливн. осадки} 10/10 750 м
[Cb calv]
+25.4 +18.6 66 +30 +30 душно 1015.0 1000.4 0.8
15 24.06 СВ 4 20 км 9/6 700 м
[Cb calv Ac trans]
+28.4 +13.5 40 +30 +30 жарко 1015.0 1000.6
18 24.06 СВ 6 27 км 6/0
[Ac trans]
+26.8 +13.9 45 +29 +29 жарко 1016.0 1001.5 +28.4 0.8
21 24.06 СЗ 2 20 км 6/0
[Ac trans]
+24.2 +14.3 54 +27 +27 жарко 1018.0 1003.3
00 25.06 С 1 23 км 3/0
[Ac trans]
+21.4 +13.3 60 +24 +24 комфорт 1018.0 1003.2
03 25.06 Ю 4 20 км ясно +21.0 +15.3 70 +24 +25 комфорт 1018.0 1003.2
06 25.06 СВ 4 20 км ясно +24.8 +16.8 61 +28 +35 жарко 1020.0 1005.3 +20.7
09 25.06 СВ 5 20 км ясно +29.5 +16.6 46 +33 +42 душно 1020.0 1005.6
12 25.06 С 5 20 км 4/4 600 м
[Cu hum]
+30.0 +15.7 42 +33 +38 душно 1020.0 1005.6

 

Местоположение метеостанции Губиниха (Днепропетровская область, Украина): широта 48.80 долгота 35.25 высота над уровнем моря 127 м.

В архиве по умолчанию представлена погода в Губинихе за последнюю неделю. Архивные данные за месяц целиком и за предыдущие месяцы, начиная с января 2011 года, Вы можете получить, выбрав интересующий диапазон дат из раскрывающегося списка и нажав кнопку "Ввод!".


*Определитесь, кто Вы:
робот инопланетянин человек

Внимание! Время в таблицах - всемирное. Для получения местного времени необходимо прибавить поправку, которая равна 2 ч.

Смотрите также архив погоды в соседних городах и на ближайших метеорологических станциях:

Погода в Днепре (Днепропетровская область, Украина) (30 км)
Погода в Синельниково (Днепропетровская область, Украина) (48 км)
Погода в Павлограде (Днепропетровская область, Украина) (52 км)
Погода в Краснограде (Харьковская область, Украина) (66 км)
Погода в Лозовой (Харьковская область, Украина) (79 км)
Погода в Кобеляках (Полтавская область, Украина) (86 км)
Погода в Александрополе (Днепропетровская область, Украина) (98 км)
Погода в Полтаве (Полтавская область, Украина) (102 км)
Погода в Чаплино (Днепропетровская область, Украина) (104 км)
Погода в Комиссаровке (Днепропетровская область, Украина) (107 км)

Пояснения к столбцам:

Ветер - указаны скорость ветра в м/с - средняя за 10 мин, порывы в срок и между сроками (в фигурных скобках) и направление, откуда дует ветер: С - северный, СВ - северо-восточный, В - восточный, ЮВ - юго-восточный, Ю - южный, ЮЗ - юго-западный, З - западный, СЗ - северо-западный.
Видимость - горизонтальная дальность видимости в метрах или километрах. При видимости от 1 до 10 км при отсутствии осадков обычно наблюдается дымка, при ухудшении видимости до 1 км и менее - туман. В сухую погоду видимость может ухудшаться дымом, пылью или мглою.
Явления - указаны атмосферные явления, наблюдавшиеся в срок или в последний час перед сроком; фигурными скобками обозначены явления, наблюдавшиеся между сроками (за 1-3 часа до срока); квадратными скобками обозначены град или гололедные отложения с указанием их диаметра в мм.
Облачность - указаны через наклонную черту общая и нижняя облачность в баллах и высота нижней границы облаков в метрах; квадратными скобками обозначены формы облаков: Ci - перистые, Cs - перисто-слоистые, Cc - перисто-кучевые, Ac - высококучевые, As - высокослоистые, Sc - слоисто-кучевые, Ns - слоисто-дождевые, Cu - кучевые, Cb - кучево-дождевые. Подробнее классификацию облаков см. в Атласе облаков (PDF).
T - Температура воздуха - температура, измеренная на высоте 2 м над землей.
Td - Температура точки росы - температура, при понижении до которой содержащийся в воздухе водяной пар достигнет насыщения.
f - Относительная влажность воздуха - влажноcть воздуха, измеренная на высоте 2 м над землей.
Te - Эффективная температура - температура, которую ощущает одетый по сезону человек в тени. Характеристика душности погоды. При расчете учитывается влияние влажности воздуха и скорости ветра на теплоощущения человека.
Tes - Эффективная температура на солнце - температура, которую ощущает человек, с поправкой на солнечный нагрев. Характеристика знойности погоды. Зависит от высоты солнца над горизонтом, облачности и скорости ветра. Ночью, в пасмурную погоду, а также при ветре 12 м/с и более поправка равна нулю.
P - Атмосферное давление - приведенное к уровню моря атмосферное давление.
Po - Атмосферное давление - измеренное на уровне метеостанции атмосферное давление.
Tmin - Минимальная температура - минимум температуры воздуха на высоте 2 м над землей.
Tmax - Максимальная температура - максимум температуры воздуха на высоте 2 м над землей.
R - Количество осадков - Количество выпавших осадков за период времени, мм. При наведении курсора мыши на число - период времени, за который выпало указанное количество осадков.
R24 - Количество осадков - Количество выпавших осадков за 24 часа, мм.
S - Снежный покров - Высота снежного покрова, см. При наведении курсора мыши на число - состояние снежного покрова и степень покрытия местности в баллах.